| time (UTC) | temp C | wind direction | speed KPH | gust KPH | rain 1hr cm | rain 24hr cm | rain mn cm | humidity % | barometer mb |
| 20260506193022 | 18 | 165 | 4.8 | 17.7 | 0.00 | 0.00 | 0.00 | 74 | 1007.6 |
| 20260506192511 | 18 | 225 | 3.2 | 16.1 | 0.00 | 0.00 | 0.00 | 75 | 1007.7 |
| 20260506192011 | 18 | 245 | 4.8 | 16.1 | 0.00 | 0.00 | 0.00 | 75 | 1007.7 |
| 20260506191524 | 18 | 288 | 4.8 | 16.1 | 0.00 | 0.00 | 0.00 | 75 | 1007.7 |
| 20260506191011 | 18 | 223 | 3.2 | 16.1 | 0.00 | 0.00 | 0.00 | 76 | 1007.7 |
| 20260506190504 | 18 | 99 | 4.8 | 24.1 | 0.00 | 0.00 | 0.00 | 77 | 1007.7 |
| 20260506190022 | 17 | 192 | 6.4 | 27.4 | 0.00 | 0.00 | 0.00 | 78 | 1007.7 |
| 20260506185503 | 18 | 172 | 6.4 | 27.4 | 0.00 | 0.00 | 0.00 | 77 | 1008.0 |
| 20260506185008 | 18 | 177 | 11.3 | 19.3 | 0.00 | 0.00 | 0.00 | 74 | 1008.0 |
| 20260506184519 | 19 | 208 | 6.4 | 19.3 | 0.00 | 0.00 | 0.00 | 71 | 1008.0 |
| 20260506184013 | 19 | 198 | 9.7 | 19.3 | 0.00 | 0.00 | 0.00 | 70 | 1007.9 |
| 20260506183508 | 19 | 225 | 3.2 | 22.5 | 0.00 | 0.00 | 0.00 | 70 | 1007.9 |
| 20260506183022 | 18 | 259 | 8.0 | 22.5 | 0.00 | 0.00 | 0.00 | 70 | 1007.9 |
| 20260506182506 | 18 | 281 | 6.4 | 16.1 | 0.00 | 0.00 | 0.00 | 71 | 1007.9 |
| 20260506182014 | 18 | 254 | 4.8 | 27.4 | 0.00 | 0.00 | 0.00 | 72 | 1008.0 |
| 20260506181524 | 18 | 228 | 8.0 | 27.4 | 0.00 | 0.00 | 0.00 | 72 | 1008.0 |
| 20260506181009 | 18 | 156 | 11.3 | 24.1 | 0.00 | 0.00 | 0.00 | 72 | 1008.1 |
| 20260506180507 | 18 | 239 | 8.0 | 22.5 | 0.00 | 0.00 | 0.00 | 73 | 1008.1 |
| 20260506180028 | 18 | 144 | 9.7 | 22.5 | 0.00 | 0.00 | 0.00 | 72 | 1008.2 |
| 20260506175513 | 19 | 286 | 9.7 | 19.3 | 0.00 | 0.00 | 0.00 | 71 | 1008.3 |
| 20260506175010 | 19 | 185 | 8.0 | 20.9 | 0.00 | 0.00 | 0.00 | 69 | 1008.4 |
| 20260506174515 | 20 | 236 | 6.4 | 27.4 | 0.00 | 0.00 | 0.00 | 67 | 1008.4 |
| 20260506174008 | 20 | 208 | 9.7 | 27.4 | 0.00 | 0.00 | 0.00 | 67 | 1008.4 |
| 20260506173505 | 20 | 204 | 8.0 | 30.6 | 0.00 | 0.00 | 0.00 | 66 | 1008.5 |
| 20260506173020 | 20 | 219 | 11.3 | 30.6 | 0.00 | 0.00 | 0.00 | 66 | 1008.5 |
| 20260506172506 | 20 | 195 | 12.9 | 29.0 | 0.00 | 0.00 | 0.00 | 67 | 1008.4 |
| 20260506172008 | 20 | 291 | 8.0 | 24.1 | 0.00 | 0.00 | 0.00 | 66 | 1008.3 |
| 20260506171525 | 21 | 142 | 4.8 | 27.4 | 0.00 | 0.00 | 0.00 | 68 | 1008.4 |
| 20260506171010 | 21 | 296 | 8.0 | 27.4 | 0.00 | 0.00 | 0.00 | 66 | 1008.4 |
| 20260506170512 | 21 | 202 | 9.7 | 17.7 | 0.00 | 0.00 | 0.00 | 66 | 1008.5 |
| 20260506170026 | 21 | 177 | 9.7 | 17.7 | 0.00 | 0.00 | 0.00 | 66 | 1008.5 |
| 20260506165513 | 20 | 198 | 8.0 | 16.1 | 0.00 | 0.00 | 0.00 | 70 | 1008.6 |
| 20260506165008 | 20 | 210 | 3.2 | 14.5 | 0.00 | 0.00 | 0.00 | 70 | 1008.6 |
| 20260506164527 | 19 | 180 | 4.8 | 12.9 | 0.00 | 0.00 | 0.00 | 71 | 1008.8 |
| 20260506164007 | 19 | 250 | 6.4 | 12.9 | 0.00 | 0.00 | 0.00 | 69 | 1009.1 |
| 20260506163507 | 19 | 182 | 6.4 | 17.7 | 0.00 | 0.00 | 0.00 | 68 | 1009.4 |
| 20260506163018 | 20 | 200 | 6.4 | 16.1 | 0.00 | 0.00 | 0.00 | 67 | 1009.6 |
| 20260506162508 | 20 | 148 | 4.8 | 17.7 | 0.00 | 0.00 | 0.00 | 67 | 1009.7 |
| 20260506162011 | 20 | 190 | 6.4 | 17.7 | 0.00 | 0.00 | 0.00 | 66 | 1009.9 |
| 20260506161524 | 19 | 178 | 4.8 | 17.7 | 0.00 | 0.00 | 0.00 | 67 | 1009.9 |
| 20260506161008 | 19 | 213 | 6.4 | 17.7 | 0.00 | 0.00 | 0.00 | 67 | 1010.1 |
| 20260506160510 | 19 | 228 | 3.2 | 17.7 | 0.00 | 0.00 | 0.00 | 68 | 1010.1 |
| 20260506160025 | 19 | 130 | 3.2 | 20.9 | 0.00 | 0.00 | 0.00 | 66 | 1010.1 |
| 20260506155509 | 19 | 239 | 6.4 | 20.9 | 0.00 | 0.00 | 0.00 | 66 | 1010.1 |
| 20260506155010 | 19 | 270 | 4.8 | 19.3 | 0.00 | 0.00 | 0.00 | 66 | 1010.0 |
| 20260506154530 | 20 | 207 | 4.8 | 19.3 | 0.00 | 0.00 | 0.00 | 65 | 1010.1 |
| 20260506154012 | 20 | 232 | 8.0 | 17.7 | 0.00 | 0.00 | 0.00 | 63 | 1010.1 |
| 20260506153515 | 20 | 144 | 8.0 | 17.7 | 0.00 | 0.00 | 0.00 | 61 | 1010.1 |
| 20260506153014 | 20 | 263 | 4.8 | 17.7 | 0.00 | 0.00 | 0.00 | 60 | 1010.0 |
| 20260506152507 | 20 | 130 | 8.0 | 17.7 | 0.00 | 0.00 | 0.00 | 59 | 1010.0 |
| 20260506152009 | 21 | 229 | 4.8 | 22.5 | 0.00 | 0.00 | 0.00 | 60 | 1010.1 |
| 20260506151520 | 21 | 280 | 4.8 | 25.7 | 0.00 | 0.00 | 0.00 | 59 | 1010.0 |
| 20260506151010 | 20 | 189 | 6.4 | 25.7 | 0.00 | 0.00 | 0.00 | 59 | 1010.1 |
| 20260506150509 | 20 | 281 | 4.8 | 14.5 | 0.00 | 0.00 | 0.00 | 60 | 1009.9 |
| 20260506150024 | 20 | 211 | 8.0 | 24.1 | 0.00 | 0.00 | 0.00 | 60 | 1010.1 |
| 20260506145510 | 20 | 208 | 9.7 | 22.5 | 0.00 | 0.00 | 0.00 | 59 | 1010.1 |
| 20260506145010 | 20 | 216 | 6.4 | 22.5 | 0.00 | 0.00 | 0.00 | 59 | 1010.0 |
| 20260506144527 | 21 | 314 | 9.7 | 22.5 | 0.00 | 0.00 | 0.00 | 58 | 1010.2 |
| 20260506144012 | 21 | 240 | 6.4 | 19.3 | 0.00 | 0.00 | 0.00 | 58 | 1010.1 |
| 20260506143507 | 21 | 90 | 8.0 | 16.1 | 0.00 | 0.00 | 0.00 | 58 | 1010.1 |
| 20260506143030 | 21 | 284 | 6.4 | 19.3 | 0.00 | 0.00 | 0.00 | 60 | 1010.0 |
| 20260506142510 | 21 | 206 | 6.4 | 20.9 | 0.00 | 0.00 | 0.00 | 58 | 1010.0 |
| 20260506142009 | 21 | 240 | 11.3 | 24.1 | 0.00 | 0.00 | 0.00 | 58 | 1010.0 |
| 20260506141518 | 21 | 254 | 8.0 | 24.1 | 0.00 | 0.00 | 0.00 | 59 | 1010.0 |
| 20260506141011 | 21 | 279 | 8.0 | 17.7 | 0.00 | 0.00 | 0.00 | 59 | 1010.0 |
| 20260506140510 | 21 | 212 | 6.4 | 17.7 | 0.00 | 0.00 | 0.00 | 59 | 1010.0 |
| 20260506140022 | 20 | 271 | 6.4 | 32.2 | 0.00 | 0.00 | 0.00 | 60 | 1010.0 |
| 20260506135503 | 20 | 209 | 11.3 | 32.2 | 0.00 | 0.00 | 0.00 | 60 | 1009.9 |
| 20260506135005 | 20 | 175 | 6.4 | 25.7 | 0.00 | 0.00 | 0.00 | 60 | 1009.9 |
| 20260506134508 | 21 | 248 | 6.4 | 29.0 | 0.00 | 0.00 | 0.00 | 60 | 1009.9 |
| 20260506134002 | 21 | 245 | 12.9 | 27.4 | 0.00 | 0.00 | 0.00 | 59 | 1010.0 |
| 20260506133504 | 21 | 179 | 8.0 | 24.1 | 0.00 | 0.00 | 0.00 | 59 | 1010.0 |
| 20260506133011 | 21 | 198 | 11.3 | 24.1 | 0.00 | 0.00 | 0.00 | 59 | 1010.0 |
| 20260506132508 | 21 | 195 | 8.0 | 24.1 | 0.00 | 0.00 | 0.00 | 60 | 1010.1 |
| 20260506132007 | 21 | 249 | 6.4 | 24.1 | 0.00 | 0.00 | 0.00 | 61 | 1010.2 |
| 20260506131522 | 21 | 189 | 6.4 | 33.8 | 0.00 | 0.00 | 0.00 | 61 | 1010.3 |
| 20260506131007 | 20 | 183 | 11.3 | 33.8 | 0.00 | 0.00 | 0.00 | 61 | 1010.2 |
| 20260506130511 | 20 | 264 | 8.0 | 19.3 | 0.00 | 0.00 | 0.00 | 61 | 1010.1 |
| 20260506130022 | 20 | 314 | 6.4 | 27.4 | 0.00 | 0.00 | 0.00 | 62 | 1010.2 |
| 20260506125508 | 20 | 216 | 12.9 | 25.7 | 0.00 | 0.00 | 0.00 | 62 | 1010.2 |
| 20260506125003 | 20 | 206 | 6.4 | 32.2 | 0.00 | 0.00 | 0.00 | 63 | 1010.2 |
| 20260506124506 | 20 | 183 | 12.9 | 29.0 | 0.00 | 0.00 | 0.00 | 62 | 1010.2 |
| 20260506124003 | 20 | 147 | 9.7 | 25.7 | 0.00 | 0.00 | 0.00 | 63 | 1010.2 |
| 20260506123507 | 20 | 219 | 11.3 | 25.7 | 0.00 | 0.00 | 0.00 | 63 | 1010.2 |
| 20260506123014 | 19 | 204 | 8.0 | 22.5 | 0.00 | 0.00 | 0.00 | 65 | 1010.3 |
| 20260506122504 | 19 | 226 | 11.3 | 22.5 | 0.00 | 0.00 | 0.00 | 65 | 1010.4 |
| 20260506122003 | 18 | 213 | 6.4 | 25.7 | 0.00 | 0.00 | 0.00 | 66 | 1010.4 |
| 20260506121514 | 18 | 173 | 11.3 | 25.7 | 0.00 | 0.00 | 0.00 | 66 | 1010.4 |
| 20260506121007 | 18 | 227 | 9.7 | 17.7 | 0.00 | 0.00 | 0.00 | 67 | 1010.4 |
| 20260506120507 | 18 | 199 | 8.0 | 20.9 | 0.00 | 0.00 | 0.00 | 67 | 1010.3 |
| 20260506120027 | 18 | 204 | 9.7 | 24.1 | 0.00 | 0.00 | 0.00 | 67 | 1010.4 |
| 20260506115509 | 18 | 207 | 6.4 | 24.1 | 0.00 | 0.00 | 0.00 | 68 | 1010.4 |
| 20260506115012 | 18 | 161 | 8.0 | 24.1 | 0.00 | 0.00 | 0.00 | 67 | 1010.6 |
| 20260506114521 | 18 | 190 | 8.0 | 24.1 | 0.00 | 0.00 | 0.00 | 68 | 1010.7 |
| 20260506114003 | 18 | 182 | 11.3 | 24.1 | 0.00 | 0.00 | 0.00 | 67 | 1010.6 |
| 20260506113503 | 18 | 246 | 11.3 | 20.9 | 0.00 | 0.00 | 0.00 | 67 | 1010.6 |
| 20260506113008 | 18 | 204 | 9.7 | 17.7 | 0.00 | 0.00 | 0.00 | 68 | 1010.6 |
| 20260506112502 | 18 | 195 | 6.4 | 17.7 | 0.00 | 0.00 | 0.00 | 68 | 1010.7 |
| 20260506112007 | 18 | 148 | 9.7 | 25.7 | 0.00 | 0.00 | 0.00 | 69 | 1010.7 |
| 20260506111511 | 17 | 182 | 11.3 | 25.7 | 0.00 | 0.00 | 0.00 | 70 | 1010.6 |
| 20260506111004 | 17 | 241 | 6.4 | 14.5 | 0.00 | 0.00 | 0.00 | 71 | 1010.6 |
| 20260506110504 | 17 | 207 | 8.0 | 22.5 | 0.00 | 0.00 | 0.00 | 71 | 1010.7 |
| 20260506110019 | 17 | 196 | 9.7 | 22.5 | 0.00 | 0.00 | 0.00 | 71 | 1010.6 |
| 20260506105506 | 17 | 200 | 6.4 | 27.4 | 0.00 | 0.00 | 0.00 | 72 | 1010.5 |
| 20260506105012 | 17 | 163 | 9.7 | 27.4 | 0.00 | 0.00 | 0.00 | 72 | 1010.5 |
| 20260506104522 | 17 | 209 | 6.4 | 19.3 | 0.00 | 0.00 | 0.00 | 73 | 1010.5 |
| 20260506104010 | 17 | 182 | 6.4 | 16.1 | 0.00 | 0.00 | 0.00 | 73 | 1010.5 |
| 20260506103508 | 17 | 197 | 8.0 | 17.7 | 0.00 | 0.00 | 0.00 | 74 | 1010.4 |
| 20260506103025 | 17 | 189 | 4.8 | 17.7 | 0.00 | 0.00 | 0.00 | 74 | 1010.4 |
| 20260506102503 | 17 | 201 | 9.7 | 16.1 | 0.00 | 0.00 | 0.00 | 74 | 1010.5 |
| 20260506102010 | 17 | 215 | 3.2 | 11.3 | 0.00 | 0.00 | 0.00 | 74 | 1010.6 |
| 20260506101507 | 17 | 189 | 4.8 | 17.7 | 0.00 | 0.00 | 0.00 | 74 | 1010.4 |
| 20260506101002 | 17 | 212 | 6.4 | 17.7 | 0.00 | 0.00 | 0.00 | 74 | 1010.4 |
| 20260506100508 | 17 | 192 | 4.8 | 17.7 | 0.00 | 0.00 | 0.00 | 74 | 1010.4 |
| 20260506100015 | 17 | 175 | 6.4 | 17.7 | 0.00 | 0.00 | 0.00 | 74 | 1010.4 |
| 20260506095507 | 17 | 219 | 4.8 | 12.9 | 0.00 | 0.00 | 0.00 | 74 | 1010.3 |
| 20260506095008 | 17 | 254 | 4.8 | 14.5 | 0.00 | 0.00 | 0.00 | 74 | 1010.3 |
| 20260506094520 | 17 | 200 | 3.2 | 19.3 | 0.00 | 0.00 | 0.00 | 74 | 1010.3 |
| 20260506094006 | 17 | 217 | 6.4 | 19.3 | 0.00 | 0.00 | 0.00 | 74 | 1010.2 |
| 20260506093507 | 17 | 187 | 3.2 | 17.7 | 0.00 | 0.00 | 0.00 | 74 | 1010.2 |
| 20260506093032 | 17 | 191 | 8.0 | 16.1 | 0.00 | 0.00 | 0.00 | 75 | 1010.2 |
| 20260506092509 | 17 | 192 | 4.8 | 12.9 | 0.00 | 0.00 | 0.00 | 74 | 1010.3 |
| 20260506092012 | 17 | 218 | 4.8 | 14.5 | 0.00 | 0.00 | 0.00 | 74 | 1010.3 |
| 20260506091508 | 17 | 200 | 6.4 | 17.7 | 0.00 | 0.00 | 0.00 | 74 | 1010.3 |
| 20260506091003 | 17 | 213 | 6.4 | 17.7 | 0.00 | 0.00 | 0.00 | 74 | 1010.3 |
| 20260506090507 | 17 | 235 | 3.2 | 17.7 | 0.00 | 0.00 | 0.00 | 74 | 1010.4 |
| 20260506090021 | 17 | 190 | 6.4 | 17.7 | 0.00 | 0.00 | 0.00 | 74 | 1010.3 |
| 20260506085506 | 17 | 200 | 6.4 | 16.1 | 0.00 | 0.00 | 0.00 | 74 | 1010.4 |
| 20260506085004 | 17 | 202 | 8.0 | 16.1 | 0.00 | 0.00 | 0.00 | 74 | 1010.6 |
| 20260506084532 | 17 | 212 | 4.8 | 16.1 | 0.00 | 0.00 | 0.00 | 74 | 1010.6 |
| 20260506084008 | 17 | 202 | 4.8 | 16.1 | 0.00 | 0.00 | 0.00 | 74 | 1010.5 |
| 20260506083507 | 17 | 228 | 4.8 | 11.3 | 0.00 | 0.00 | 0.00 | 74 | 1010.6 |
| 20260506083023 | 17 | 213 | 6.4 | 12.9 | 0.00 | 0.00 | 0.00 | 74 | 1010.5 |
| 20260506082508 | 17 | 136 | 6.4 | 14.5 | 0.00 | 0.00 | 0.00 | 73 | 1010.6 |
| 20260506082011 | 17 | 194 | 6.4 | 16.1 | 0.00 | 0.00 | 0.00 | 73 | 1010.6 |
| 20260506081525 | 17 | 199 | 6.4 | 16.1 | 0.00 | 0.00 | 0.00 | 73 | 1010.7 |
| 20260506081009 | 17 | 208 | 6.4 | 14.5 | 0.00 | 0.00 | 0.00 | 73 | 1010.6 |
| 20260506080509 | 17 | 205 | 8.0 | 14.5 | 0.00 | 0.00 | 0.00 | 73 | 1010.7 |
| 20260506073508 | 18 | 198 | 8.0 | 14.5 | 0.00 | 0.00 | 0.00 | 72 | 1010.5 |
| 20260506073020 | 18 | 212 | 4.8 | 22.5 | 0.00 | 0.00 | 0.00 | 72 | 1010.6 |
| 20260506072508 | 18 | 185 | 8.0 | 20.9 | 0.00 | 0.00 | 0.00 | 71 | 1010.6 |
| 20260506072002 | 18 | 196 | 6.4 | 20.9 | 0.00 | 0.00 | 0.00 | 71 | 1010.6 |
| 20260506071507 | 18 | 186 | 6.4 | 20.9 | 0.00 | 0.00 | 0.00 | 71 | 1010.7 |
| 20260506071004 | 18 | 208 | 6.4 | 22.5 | 0.00 | 0.00 | 0.00 | 71 | 1010.7 |
| 20260506070504 | 18 | 150 | 11.3 | 22.5 | 0.00 | 0.00 | 0.00 | 70 | 1010.7 |
| 20260506062508 | 18 | 193 | 8.0 | 22.5 | 0.00 | 0.00 | 0.00 | 68 | 1010.8 |
| 20260506062010 | 19 | 205 | 12.9 | 22.5 | 0.00 | 0.00 | 0.00 | 68 | 1010.7 |
| 20260506061526 | 19 | 157 | 9.7 | 20.9 | 0.00 | 0.00 | 0.00 | 68 | 1010.7 |
| 20260506061009 | 19 | 210 | 4.8 | 22.5 | 0.00 | 0.00 | 0.00 | 67 | 1010.7 |
| 20260506060505 | 19 | 186 | 11.3 | 22.5 | 0.00 | 0.00 | 0.00 | 67 | 1010.8 |
| 20260506051007 | 19 | 207 | 4.8 | 19.3 | 0.00 | 0.00 | 0.00 | 66 | 1011.3 |
| 20260506050509 | 19 | 236 | 6.4 | 19.3 | 0.00 | 0.00 | 0.00 | 65 | 1011.3 |
| 20260506045004 | 19 | 184 | 4.8 | 17.7 | 0.00 | 0.00 | 0.00 | 66 | 1011.3 |
| 20260506044511 | 19 | 202 | 6.4 | 14.5 | 0.00 | 0.00 | 0.00 | 66 | 1011.3 |
| 20260506044003 | 19 | 191 | 3.2 | 14.5 | 0.00 | 0.00 | 0.00 | 66 | 1011.4 |
| 20260506043505 | 18 | 268 | 6.4 | 11.3 | 0.00 | 0.00 | 0.00 | 66 | 1011.3 |
| 20260506043021 | 18 | 186 | 4.8 | 11.3 | 0.00 | 0.00 | 0.00 | 66 | 1011.3 |
| 20260506042504 | 18 | 190 | 1.6 | 12.9 | 0.00 | 0.00 | 0.00 | 66 | 1011.3 |
| 20260506042007 | 18 | 213 | 8.0 | 12.9 | 0.00 | 0.00 | 0.00 | 65 | 1011.4 |
| 20260506041527 | 18 | 197 | 4.8 | 11.3 | 0.00 | 0.00 | 0.00 | 66 | 1011.3 |
| 20260506041006 | 18 | 150 | 3.2 | 14.5 | 0.00 | 0.00 | 0.00 | 65 | 1011.3 |
| 20260506040507 | 18 | 196 | 4.8 | 14.5 | 0.00 | 0.00 | 0.00 | 65 | 1011.3 |
| 20260506040032 | 18 | 202 | 4.8 | 14.5 | 0.00 | 0.00 | 0.00 | 65 | 1011.3 |
| 20260506035508 | 18 | 233 | 4.8 | 11.3 | 0.00 | 0.00 | 0.00 | 65 | 1011.2 |
| 20260506035009 | 18 | 167 | 6.4 | 12.9 | 0.00 | 0.00 | 0.00 | 65 | 1011.2 |
| 20260506034530 | 18 | 213 | 3.2 | 14.5 | 0.00 | 0.00 | 0.00 | 65 | 1011.2 |
| 20260506034003 | 18 | 213 | 4.8 | 17.7 | 0.00 | 0.00 | 0.00 | 64 | 1011.3 |
| 20260506033503 | 18 | 241 | 6.4 | 17.7 | 0.00 | 0.00 | 0.00 | 64 | 1011.3 |
| 20260506033012 | 18 | 159 | 6.4 | 17.7 | 0.00 | 0.00 | 0.00 | 64 | 1011.3 |
| 20260506032507 | 18 | 197 | 8.0 | 16.1 | 0.00 | 0.00 | 0.00 | 64 | 1011.3 |
| 20260506032006 | 18 | 203 | 8.0 | 16.1 | 0.00 | 0.00 | 0.00 | 64 | 1011.3 |
| 20260506031517 | 18 | 194 | 6.4 | 14.5 | 0.00 | 0.00 | 0.00 | 63 | 1011.2 |
| 20260506031008 | 19 | 221 | 4.8 | 17.7 | 0.00 | 0.00 | 0.00 | 63 | 1011.2 |
| 20260506030508 | 19 | 234 | 8.0 | 17.7 | 0.00 | 0.00 | 0.00 | 62 | 1011.2 |
| 20260506030022 | 19 | 182 | 6.4 | 14.5 | 0.00 | 0.00 | 0.00 | 62 | 1011.3 |
| 20260506025511 | 19 | 234 | 6.4 | 14.5 | 0.00 | 0.00 | 0.00 | 62 | 1011.2 |
| 20260506025009 | 19 | 233 | 4.8 | 16.1 | 0.00 | 0.00 | 0.00 | 62 | 1011.2 |
| 20260506024527 | 19 | 182 | 3.2 | 16.1 | 0.00 | 0.00 | 0.00 | 61 | 1011.3 |
| 20260506024014 | 19 | 203 | 8.0 | 16.1 | 0.00 | 0.00 | 0.00 | 61 | 1011.3 |
| 20260506023510 | 19 | 192 | 4.8 | 16.1 | 0.00 | 0.00 | 0.00 | 60 | 1011.4 |
| 20260506023016 | 19 | 231 | 6.4 | 22.5 | 0.00 | 0.00 | 0.00 | 60 | 1011.3 |
| 20260506022502 | 19 | 206 | 4.8 | 22.5 | 0.00 | 0.00 | 0.00 | 60 | 1011.3 |
| 20260506022003 | 20 | 177 | 8.0 | 20.9 | 0.00 | 0.00 | 0.00 | 59 | 1011.3 |
| 20260506021513 | 20 | 215 | 6.4 | 20.9 | 0.00 | 0.00 | 0.00 | 59 | 1011.3 |
| 20260506021011 | 20 | 209 | 8.0 | 19.3 | 0.00 | 0.00 | 0.00 | 59 | 1011.3 |
| 20260506020510 | 20 | 200 | 6.4 | 16.1 | 0.00 | 0.00 | 0.00 | 58 | 1011.3 |
| 20260506020022 | 20 | 196 | 6.4 | 16.1 | 0.00 | 0.00 | 0.00 | 58 | 1011.3 |
| 20260506015508 | 20 | 208 | 6.4 | 19.3 | 0.00 | 0.00 | 0.00 | 58 | 1011.2 |
| 20260506015008 | 20 | 200 | 8.0 | 16.1 | 0.00 | 0.00 | 0.00 | 57 | 1011.2 |
| 20260506014525 | 20 | 178 | 4.8 | 16.1 | 0.00 | 0.00 | 0.00 | 57 | 1011.2 |
| 20260506014008 | 20 | 205 | 4.8 | 16.1 | 0.00 | 0.00 | 0.00 | 58 | 1011.0 |
| 20260506013504 | 20 | 170 | 4.8 | 14.5 | 0.00 | 0.00 | 0.00 | 57 | 1011.0 |
| 20260506013009 | 20 | 180 | 4.8 | 22.5 | 0.00 | 0.00 | 0.00 | 57 | 1010.9 |
| 20260506012504 | 20 | 195 | 11.3 | 20.9 | 0.00 | 0.00 | 0.00 | 56 | 1010.9 |
| 20260506012006 | 20 | 192 | 4.8 | 14.5 | 0.00 | 0.00 | 0.00 | 57 | 1010.9 |
| 20260506011532 | 20 | 205 | 4.8 | 17.7 | 0.00 | 0.00 | 0.00 | 56 | 1010.8 |
| 20260506011008 | 20 | 221 | 6.4 | 17.7 | 0.00 | 0.00 | 0.00 | 56 | 1010.8 |
| 20260506010508 | 21 | 261 | 4.8 | 17.7 | 0.00 | 0.00 | 0.00 | 56 | 1010.9 |
| 20260506010019 | 21 | 195 | 8.0 | 17.7 | 0.00 | 0.00 | 0.00 | 55 | 1010.8 |
| 20260506005506 | 21 | 196 | 4.8 | 12.9 | 0.00 | 0.00 | 0.00 | 54 | 1010.9 |
| 20260506005007 | 21 | 203 | 4.8 | 14.5 | 0.00 | 0.00 | 0.00 | 54 | 1010.8 |
| 20260506004533 | 21 | 213 | 4.8 | 16.1 | 0.00 | 0.00 | 0.00 | 52 | 1010.7 |
| 20260506004012 | 22 | 227 | 8.0 | 20.9 | 0.00 | 0.00 | 0.00 | 51 | 1010.6 |
| 20260506003503 | 22 | 184 | 8.0 | 20.9 | 0.00 | 0.00 | 0.00 | 50 | 1010.5 |
| 20260506003004 | 22 | 186 | 6.4 | 19.3 | 0.00 | 0.00 | 0.00 | 49 | 1010.4 |
| 20260506002504 | 22 | 178 | 9.7 | 19.3 | 0.00 | 0.00 | 0.00 | 48 | 1010.2 |
| 20260506002004 | 22 | 275 | 8.0 | 17.7 | 0.00 | 0.00 | 0.00 | 47 | 1010.0 |
| 20260506001513 | 23 | 238 | 6.4 | 16.1 | 0.00 | 0.00 | 0.00 | 46 | 1010.0 |
| 20260506001004 | 23 | 205 | 8.0 | 16.1 | 0.00 | 0.00 | 0.00 | 46 | 1010.1 |
| 20260506000507 | 23 | 257 | 8.0 | 17.7 | 0.00 | 0.00 | 0.00 | 45 | 1010.0 |
| 20260506000014 | 23 | 128 | 8.0 | 19.3 | 0.00 | 0.00 | 0.00 | 45 | 1010.0 |
| 20260505235507 | 23 | 164 | 6.4 | 24.1 | 0.00 | 0.00 | 0.00 | 44 | 1009.9 |
| 20260505235006 | 23 | 192 | 8.0 | 24.1 | 0.00 | 0.00 | 0.00 | 42 | 1010.0 |
| 20260505234517 | 24 | 198 | 11.3 | 19.3 | 0.00 | 0.00 | 0.00 | 41 | 1009.9 |
| 20260505234012 | 24 | 213 | 8.0 | 19.3 | 0.00 | 0.00 | 0.00 | 41 | 1009.8 |
| 20260505233507 | 24 | 184 | 8.0 | 22.5 | 0.00 | 0.00 | 0.00 | 40 | 1009.8 |
| 20260505233030 | 24 | 212 | 8.0 | 22.5 | 0.00 | 0.00 | 0.00 | 40 | 1009.7 |
| 20260505232505 | 25 | 251 | 4.8 | 17.7 | 0.00 | 0.00 | 0.00 | 40 | 1009.7 |
| 20260505232003 | 25 | 223 | 4.8 | 14.5 | 0.00 | 0.00 | 0.00 | 39 | 1009.7 |
| 20260505231508 | 25 | 205 | 3.2 | 24.1 | 0.00 | 0.00 | 0.00 | 39 | 1009.6 |
| 20260505231004 | 25 | 254 | 8.0 | 24.1 | 0.00 | 0.00 | 0.00 | 37 | 1009.5 |
| 20260505230504 | 25 | 189 | 11.3 | 24.1 | 0.00 | 0.00 | 0.00 | 37 | 1009.4 |
| 20260505230011 | 26 | 269 | 8.0 | 24.1 | 0.00 | 0.00 | 0.00 | 37 | 1009.4 |
| 20260505225510 | 26 | 281 | 9.7 | 29.0 | 0.00 | 0.00 | 0.00 | 36 | 1009.4 |
| 20260505225006 | 26 | 204 | 14.5 | 30.6 | 0.00 | 0.00 | 0.00 | 36 | 1009.5 |
| 20260505224516 | 26 | 194 | 8.0 | 30.6 | 0.00 | 0.00 | 0.00 | 36 | 1009.3 |
| 20260505224007 | 26 | 185 | 12.9 | 30.6 | 0.00 | 0.00 | 0.00 | 35 | 1009.2 |
| 20260505223508 | 26 | 206 | 11.3 | 35.4 | 0.00 | 0.00 | 0.00 | 35 | 1009.2 |
| 20260505223022 | 26 | 180 | 12.9 | 35.4 | 0.00 | 0.00 | 0.00 | 35 | 1009.1 |
| 20260505222511 | 26 | 291 | 8.0 | 29.0 | 0.00 | 0.00 | 0.00 | 35 | 1009.1 |
| 20260505222014 | 26 | 252 | 12.9 | 27.4 | 0.00 | 0.00 | 0.00 | 34 | 1009.1 |
| 20260505221526 | 27 | 198 | 9.7 | 29.0 | 0.00 | 0.00 | 0.00 | 34 | 1008.9 |
| 20260505221006 | 27 | 190 | 16.1 | 32.2 | 0.00 | 0.00 | 0.00 | 33 | 1008.9 |
| 20260505220505 | 27 | 276 | 11.3 | 35.4 | 0.00 | 0.00 | 0.00 | 34 | 1008.8 |
| 20260505220022 | 27 | 220 | 17.7 | 35.4 | 0.00 | 0.00 | 0.00 | 33 | 1008.9 |
| 20260505215505 | 27 | 238 | 9.7 | 27.4 | 0.00 | 0.00 | 0.00 | 34 | 1009.0 |
| 20260505215006 | 27 | 181 | 11.3 | 27.4 | 0.00 | 0.00 | 0.00 | 33 | 1008.9 |
| 20260505214525 | 27 | 207 | 8.0 | 22.5 | 0.00 | 0.00 | 0.00 | 33 | 1008.9 |
| 20260505214008 | 27 | 290 | 9.7 | 38.6 | 0.00 | 0.00 | 0.00 | 33 | 1008.9 |
| 20260505213510 | 27 | 198 | 8.0 | 38.6 | 0.00 | 0.00 | 0.00 | 32 | 1008.8 |
| 20260505213024 | 27 | 207 | 14.5 | 38.6 | 0.00 | 0.00 | 0.00 | 32 | 1008.9 |
| 20260505212507 | 27 | 275 | 8.0 | 29.0 | 0.00 | 0.00 | 0.00 | 33 | 1008.7 |
| 20260505212011 | 27 | 128 | 12.9 | 20.9 | 0.00 | 0.00 | 0.00 | 33 | 1008.8 |
| 20260505211527 | 27 | 162 | 12.9 | 25.7 | 0.00 | 0.00 | 0.00 | 33 | 1008.6 |
| 20260505211007 | 28 | 233 | 11.3 | 25.7 | 0.00 | 0.00 | 0.00 | 32 | 1008.7 |
| 20260505210511 | 28 | 214 | 8.0 | 27.4 | 0.00 | 0.00 | 0.00 | 31 | 1008.5 |
| 20260505210008 | 27 | 136 | 14.5 | 27.4 | 0.00 | 0.00 | 0.00 | 31 | 1008.5 |
| 20260505205509 | 27 | 191 | 11.3 | 37.0 | 0.00 | 0.00 | 0.00 | 32 | 1008.5 |
| 20260505205007 | 28 | 184 | 14.5 | 37.0 | 0.00 | 0.00 | 0.00 | 30 | 1008.6 |
| 20260505204513 | 28 | 317 | 12.9 | 32.2 | 0.00 | 0.00 | 0.00 | 33 | 1008.4 |
| 20260505204006 | 28 | 226 | 11.3 | 32.2 | 0.00 | 0.00 | 0.00 | 31 | 1008.4 |
| 20260505203507 | 28 | 253 | 8.0 | 22.5 | 0.00 | 0.00 | 0.00 | 33 | 1008.5 |
| 20260505203020 | 28 | 278 | 11.3 | 30.6 | 0.00 | 0.00 | 0.00 | 33 | 1008.5 |
| 20260505202508 | 28 | 194 | 11.3 | 30.6 | 0.00 | 0.00 | 0.00 | 34 | 1008.4 |
| 20260505202010 | 28 | 271 | 12.9 | 41.8 | 0.00 | 0.00 | 0.00 | 33 | 1008.6 |
| 20260505201524 | 28 | 250 | 12.9 | 41.8 | 0.00 | 0.00 | 0.00 | 33 | 1008.6 |
| 20260505201008 | 27 | 242 | 14.5 | 30.6 | 0.00 | 0.00 | 0.00 | 34 | 1008.6 |
| 20260505200510 | 28 | 250 | 12.9 | 30.6 | 0.00 | 0.00 | 0.00 | 32 | 1008.7 |
| 20260505200024 | 28 | 184 | 14.5 | 33.8 | 0.00 | 0.00 | 0.00 | 33 | 1008.7 |
| 20260505195509 | 28 | 228 | 14.5 | 33.8 | 0.00 | 0.00 | 0.00 | 32 | 1008.7 |
| 20260505195004 | 28 | 221 | 11.3 | 37.0 | 0.00 | 0.00 | 0.00 | 34 | 1008.8 |
| 20260505194519 | 28 | 269 | 16.1 | 37.0 | 0.00 | 0.00 | 0.00 | 32 | 1008.8 |
| 20260505194011 | 28 | 175 | 12.9 | 35.4 | 0.00 | 0.00 | 0.00 | 32 | 1008.9 |
| 20260505193508 | 28 | 190 | 16.1 | 29.0 | 0.00 | 0.00 | 0.00 | 32 | 1008.9 |